Location: ????????
(55.1591°N, 39.1782°E)
Time: 21:25:04
(UTC+00:00)

Cosmos 1151 Rocket - Pass Details

Date: 14 April 2024
Orbit: 588 x 611 km, 82.5° (Epoch: 23 May)

Event Time Altitude Azimuth Distance (km) Brightness Sun altitude
Exits shadow 01:04:30 - 198° (SSW) 2,042 5.2 -10.7°
Reaches altitude 10° 01:04:45 10° 198° (SSW) 1,941 5.1 -10.7°
Maximum altitude 01:09:02 72° 283° (WNW) 642 3.0 -10.1°
Drops below altitude 10° 01:13:23 10° 9° (N) 1,971 6.3 -9.6°
Sets 01:15:38 0° 11° (NNE) 2,883 7.2 -9.4°
